sat.trackr.live / text

‹ back to catalog

STARLINK-11563 [DTC]

NORAD 63053 · 2025-035B

PAYLOAD ACTIVE UNKNOWN

§ Identity

Operator
Country
US
Launch date
2025-02-21
Launch site
AFETR
Launch vehicle
Mass (kg)
RCS (m²)

Purposes: comms

External: N2YO · Heavens-Above · Gunter

§ Orbital elements

Epoch: 2026-09-21T02:07:28.468416Z

Period
91.67 min
Inclination
42.9999°
Eccentricity
0.0001803
Mean motion
15.70894900 rev/d
Perigee alt
355.1 km
Apogee alt
357.6 km
Semi-major
6,734.5 km
B*
1.0122e-3
RAAN
277.4004°
Arg perigee
259.8253°
Mean anomaly
100.2411°
Rev number
9,184

§ Raw data

STARLINK-11563 [DTC]1 63053U 25035B   26264.08852394  .00131811  00000+0  10122-2 0  99932 63053  42.9999 277.4004 0001803 259.8253 100.2411 15.70894900 91845

JSON: /api/v1/satellites/63053 · /tle

For live sub-satellite position, see the globe view (requires WebGL).

§ Visibility from observer

Set your observer location to see the next 7 days of passes ≥ 10°. The values pass through the URL so the page stays shareable.

No JS? Fill the form by hand. The geolocation button needs JavaScript.